{"data":{"norad_id":62047,"intl_designator":"2024-216R","name":"STARLINK-32630","alt_names":[],"object_type":"PAYLOAD","status":"ACTIVE","operator":null,"country":"US","launch_date":"2024-11-21","launch_site_code":"AFETR","launch_vehicle":null,"mission":null,"orbit_class":"UNKNOWN","rcs_meters":null,"size_class":null,"mass_kg":null,"dimensions":null,"purposes":["comms"],"wikipedia_slug":null,"has_3d_model":false,"image_url":null,"decayed_at":null,"tle_current":{"epoch":"2026-09-21T08:05:48.800832Z","epoch_age_seconds":113191,"freshness":"FRESH","line1":"1 62047U 24216R   26264.33737038  .00006715  00000+0  25330-3 0  9992","line2":"2 62047  43.0005 238.6542 0001360 270.2949  89.7747 15.27583253103711","mean_motion":15.27583253,"eccentricity":0.000136,"inclination_deg":43.0005,"raan_deg":238.6542,"arg_perigee_deg":270.2949,"mean_anomaly_deg":89.7747,"bstar":0.0002533,"rev_number":10371,"period_min":94.266547971903,"perigee_km":482.10623542034,"apogee_km":483.97247538901,"semimajor_km":6861.1763554047,"source":"CELESTRAK","updated_at":"2026-09-22T09:00:49.489261Z"}}}